Time,TemperatureF,DewpointF,PressureIn,WindDirection,WindDirectionDegrees,WindSpeedMPH,WindSpeedGustMPH,Humidity,HourlyPrecipIn,Conditions,Clouds,dailyrainin,SoftwareType,DateUTC
2013-11-16 00:02:00,52.2,47.8,29.69,South,169,14.0,19.0,85,0.00,,,0.00,Wunderground v.1.15,2013-11-16 06:02:00,
2013-11-16 00:07:00,52.2,47.8,29.69,South,171,15.0,20.0,85,0.00,,,0.00,Wunderground v.1.15,2013-11-16 06:07:00,
2013-11-16 00:13:00,52.3,48.2,29.69,SSE,159,14.0,19.0,86,0.00,,,0.00,Wunderground v.1.15,2013-11-16 06:13:00,
2013-11-16 00:19:00,52.5,48.4,29.68,SSE,160,14.0,22.0,86,0.00,,,0.00,Wunderground v.1.15,2013-11-16 06:19:00,
2013-11-16 00:25:00,52.6,48.5,29.68,South,169,14.0,19.0,86,0.00,,,0.00,Wunderground v.1.15,2013-11-16 06:25:00,
2013-11-16 00:31:00,52.8,48.7,29.68,SSE,167,15.0,15.0,86,0.00,,,0.00,Wunderground v.1.15,2013-11-16 06:31:00,
2013-11-16 00:36:00,52.8,48.4,29.67,South,170,15.0,22.0,85,0.00,,,0.00,Wunderground v.1.15,2013-11-16 06:36:00,
2013-11-16 00:42:00,52.9,48.8,29.67,South,170,15.0,22.0,86,0.00,,,0.00,Wunderground v.1.15,2013-11-16 06:42:00,
2013-11-16 00:48:00,53.1,49.0,29.67,South,172,16.0,22.0,86,0.00,,,0.00,Wunderground v.1.15,2013-11-16 06:48:00,
2013-11-16 00:54:00,53.0,48.9,29.67,South,180,16.0,20.0,86,0.00,,,0.00,Wunderground v.1.15,2013-11-16 06:54:00,
2013-11-16 00:59:00,53.0,48.9,29.67,SSE,164,15.0,23.0,86,0.00,,,0.00,Wunderground v.1.15,2013-11-16 06:59:00,
2013-11-16 01:04:00,53.0,49.2,29.66,South,173,15.0,23.0,87,0.00,,,0.00,Wunderground v.1.15,2013-11-16 07:04:00,
2013-11-16 01:10:00,53.0,49.2,29.66,SSE,163,16.0,16.0,87,0.00,,,0.00,Wunderground v.1.15,2013-11-16 07:10:00,
2013-11-16 01:15:00,53.0,49.2,29.66,South,170,16.0,23.0,87,0.00,,,0.00,Wunderground v.1.15,2013-11-16 07:15:00,
2013-11-16 01:20:00,53.1,49.6,29.66,South,178,16.0,16.0,88,0.00,,,0.00,Wunderground v.1.15,2013-11-16 07:20:00,
2013-11-16 01:26:00,53.0,49.5,29.65,South,180,16.0,21.0,88,0.00,,,0.00,Wunderground v.1.15,2013-11-16 07:26:00,
2013-11-16 01:32:00,53.0,49.5,29.65,South,169,16.0,22.0,88,0.00,,,0.00,Wunderground v.1.15,2013-11-16 07:32:00,
2013-11-16 01:38:00,53.0,49.5,29.65,SSE,161,15.0,22.0,88,0.00,,,0.00,Wunderground v.1.15,2013-11-16 07:38:00,
2013-11-16 01:44:00,52.9,49.7,29.65,SSE,164,16.0,21.0,89,0.00,,,0.00,Wunderground v.1.15,2013-11-16 07:44:00,
2013-11-16 01:50:00,52.9,49.7,29.64,South,172,15.0,15.0,89,0.00,,,0.00,Wunderground v.1.15,2013-11-16 07:50:00,
2013-11-16 01:56:00,52.8,49.6,29.64,South,170,14.0,18.0,89,0.00,,,0.00,Wunderground v.1.15,2013-11-16 07:56:00,
2013-11-16 02:02:00,52.8,49.9,29.63,South,178,15.0,20.0,90,0.00,,,0.00,Wunderground v.1.15,2013-11-16 08:02:00,
2013-11-16 02:08:00,52.8,49.9,29.63,South,169,15.0,22.0,90,0.00,,,0.00,Wunderground v.1.15,2013-11-16 08:08:00,
2013-11-16 02:13:00,52.9,50.0,29.63,South,176,16.0,25.0,90,0.00,,,0.00,Wunderground v.1.15,2013-11-16 08:13:00,
2013-11-16 02:19:00,53.1,50.2,29.62,South,176,18.0,25.0,90,0.00,,,0.00,Wunderground v.1.15,2013-11-16 08:19:00,
2013-11-16 02:25:00,53.3,50.4,29.62,South,170,17.0,23.0,90,0.00,,,0.00,Wunderground v.1.15,2013-11-16 08:25:00,
2013-11-16 02:31:00,53.4,50.5,29.61,South,169,18.0,22.0,90,0.00,,,0.00,Wunderground v.1.15,2013-11-16 08:31:00,
2013-11-16 02:36:00,53.5,50.6,29.61,South,189,19.0,29.0,90,0.00,,,0.00,Wunderground v.1.15,2013-11-16 08:36:00,
2013-11-16 02:41:00,53.6,50.7,29.61,SSE,165,19.0,21.0,90,0.00,,,0.00,Wunderground v.1.15,2013-11-16 08:41:00,
2013-11-16 02:47:00,53.8,51.2,29.61,South,177,18.0,24.0,91,0.00,,,0.00,Wunderground v.1.15,2013-11-16 08:47:00,
2013-11-16 02:53:00,54.0,51.1,29.61,South,172,18.0,26.0,90,0.00,,,0.00,Wunderground v.1.15,2013-11-16 08:53:00,
2013-11-16 02:58:00,54.1,51.2,29.61,South,178,18.0,26.0,90,0.00,,,0.00,Wunderground v.1.15,2013-11-16 08:58:00,
2013-11-16 03:04:00,54.4,51.5,29.61,South,188,18.0,24.0,90,0.00,,,0.00,Wunderground v.1.15,2013-11-16 09:04:00,
2013-11-16 03:09:00,54.6,51.7,29.61,South,187,18.0,25.0,90,0.00,,,0.00,Wunderground v.1.15,2013-11-16 09:09:00,
2013-11-16 03:15:00,54.9,52.0,29.60,South,175,18.0,24.0,90,0.00,,,0.00,Wunderground v.1.15,2013-11-16 09:15:00,
2013-11-16 03:22:00,55.1,52.2,29.61,SSE,167,17.0,22.0,90,0.00,,,0.00,Wunderground v.1.15,2013-11-16 09:22:00,
2013-11-16 03:28:00,55.1,52.2,29.60,South,183,17.0,24.0,90,0.00,,,0.00,Wunderground v.1.15,2013-11-16 09:28:00,
2013-11-16 03:33:00,55.0,52.1,29.60,SSE,167,16.0,22.0,90,0.00,,,0.00,Wunderground v.1.15,2013-11-16 09:33:00,
2013-11-16 03:38:00,55.2,52.3,29.61,South,174,17.0,24.0,90,0.00,,,0.00,Wunderground v.1.15,2013-11-16 09:38:00,
2013-11-16 03:44:00,55.1,52.2,29.60,South,182,17.0,22.0,90,0.00,,,0.00,Wunderground v.1.15,2013-11-16 09:44:00,
2013-11-16 03:49:00,55.2,52.3,29.60,South,180,17.0,22.0,90,0.00,,,0.00,Wunderground v.1.15,2013-11-16 09:49:00,
2013-11-16 03:54:00,55.2,52.3,29.59,South,178,16.0,20.0,90,0.00,,,0.00,Wunderground v.1.15,2013-11-16 09:54:00,
2013-11-16 04:00:00,55.4,52.5,29.60,South,179,16.0,19.0,90,0.00,,,0.00,Wunderground v.1.15,2013-11-16 10:00:00,
2013-11-16 04:05:00,55.7,52.8,29.59,South,191,16.0,22.0,90,0.00,,,0.00,Wunderground v.1.15,2013-11-16 10:05:00,
2013-11-16 04:10:00,55.8,52.6,29.59,South,181,16.0,20.0,89,0.00,,,0.00,Wunderground v.1.15,2013-11-16 10:10:00,
2013-11-16 04:16:00,56.0,52.8,29.59,South,171,16.0,22.0,89,0.00,,,0.00,Wunderground v.1.15,2013-11-16 10:16:00,
2013-11-16 04:22:00,56.5,53.0,29.59,South,175,16.0,23.0,88,0.00,,,0.00,Wunderground v.1.15,2013-11-16 10:22:00,
2013-11-16 04:27:00,56.5,53.0,29.60,South,179,15.0,23.0,88,0.00,,,0.00,Wunderground v.1.15,2013-11-16 10:27:00,
2013-11-16 04:32:00,56.7,53.2,29.60,SSW,196,14.0,18.0,88,0.00,,,0.00,Wunderground v.1.15,2013-11-16 10:32:00,
2013-11-16 04:37:00,57.0,53.5,29.60,South,169,14.0,19.0,88,0.00,,,0.00,Wunderground v.1.15,2013-11-16 10:37:00,
2013-11-16 04:43:00,57.3,53.5,29.60,South,184,14.0,17.0,87,0.00,,,0.00,Wunderground v.1.15,2013-11-16 10:43:00,
2013-11-16 04:49:00,57.5,53.7,29.59,South,171,13.0,19.0,87,0.00,,,0.00,Wunderground v.1.15,2013-11-16 10:49:00,
2013-11-16 04:55:00,57.7,53.9,29.59,SSE,166,14.0,24.0,87,0.00,,,0.00,Wunderground v.1.15,2013-11-16 10:55:00,
2013-11-16 05:01:00,57.9,53.7,29.58,SSE,162,16.0,22.0,86,0.00,,,0.00,Wunderground v.1.15,2013-11-16 11:01:00,
2013-11-16 05:07:00,57.9,53.7,29.58,South,185,16.0,22.0,86,0.00,,,0.00,Wunderground v.1.15,2013-11-16 11:07:00,
2013-11-16 05:13:00,58.2,54.0,29.58,SSW,202,16.0,22.0,86,0.00,,,0.00,Wunderground v.1.15,2013-11-16 11:13:00,
2013-11-16 05:18:00,58.3,54.1,29.58,South,189,16.0,23.0,86,0.00,,,0.00,Wunderground v.1.15,2013-11-16 11:18:00,
2013-11-16 05:24:00,58.5,54.0,29.58,South,177,15.0,22.0,85,0.00,,,0.00,Wunderground v.1.15,2013-11-16 11:24:00,
2013-11-16 05:29:00,58.5,54.3,29.57,SSW,192,16.0,22.0,86,0.00,,,0.00,Wunderground v.1.15,2013-11-16 11:29:00,
2013-11-16 05:34:00,58.4,53.9,29.58,South,182,16.0,22.0,85,0.00,,,0.00,Wunderground v.1.15,2013-11-16 11:34:00,
2013-11-16 05:40:00,58.4,54.2,29.57,SSE,158,16.0,21.0,86,0.00,,,0.00,Wunderground v.1.15,2013-11-16 11:40:00,
2013-11-16 05:46:00,58.4,53.9,29.57,South,173,17.0,24.0,85,0.00,,,0.00,Wunderground v.1.15,2013-11-16 11:46:00,
2013-11-16 05:52:00,58.3,54.1,29.57,South,182,16.0,22.0,86,0.00,,,0.00,Wunderground v.1.15,2013-11-16 11:52:00,
2013-11-16 05:57:00,58.3,54.1,29.57,South,182,15.0,22.0,86,0.00,,,0.00,Wunderground v.1.15,2013-11-16 11:57:00,
2013-11-16 06:02:00,58.3,54.1,29.57,SSW,195,15.0,20.0,86,0.00,,,0.00,Wunderground v.1.15,2013-11-16 12:02:00,
2013-11-16 06:08:00,58.5,54.0,29.56,South,178,15.0,22.0,85,0.00,,,0.00,Wunderground v.1.15,2013-11-16 12:08:00,
2013-11-16 06:13:00,58.4,53.9,29.56,South,186,15.0,21.0,85,0.00,,,0.00,Wunderground v.1.15,2013-11-16 12:13:00,
2013-11-16 06:19:00,58.5,54.0,29.56,South,186,15.0,23.0,85,0.00,,,0.00,Wunderground v.1.15,2013-11-16 12:19:00,
2013-11-16 06:24:00,58.4,53.9,29.55,South,169,15.0,20.0,85,0.00,,,0.00,Wunderground v.1.15,2013-11-16 12:24:00,
2013-11-16 06:29:00,58.4,53.9,29.56,South,178,16.0,23.0,85,0.00,,,0.00,Wunderground v.1.15,2013-11-16 12:29:00,
2013-11-16 06:34:00,58.2,53.7,29.56,SSE,166,16.0,21.0,85,0.00,,,0.00,Wunderground v.1.15,2013-11-16 12:34:00,
2013-11-16 06:40:00,58.2,53.7,29.56,South,179,16.0,17.0,85,0.00,,,0.00,Wunderground v.1.15,2013-11-16 12:40:00,
2013-11-16 06:46:00,58.3,53.5,29.56,SSW,197,15.0,21.0,84,0.00,,,0.00,Wunderground v.1.15,2013-11-16 12:46:00,
2013-11-16 06:52:00,58.3,53.5,29.56,South,190,15.0,22.0,84,0.00,,,0.00,Wunderground v.1.15,2013-11-16 12:52:00,
2013-11-16 06:57:00,58.2,53.4,29.56,SSE,165,14.0,22.0,84,0.00,,,0.00,Wunderground v.1.15,2013-11-16 12:57:00,
2013-11-16 07:02:00,58.2,53.4,29.55,SSE,167,14.0,22.0,84,0.00,,,0.00,Wunderground v.1.15,2013-11-16 13:02:00,
2013-11-16 07:07:00,58.1,53.3,29.56,South,187,15.0,22.0,84,0.00,,,0.00,Wunderground v.1.15,2013-11-16 13:07:00,
2013-11-16 07:13:00,58.0,53.2,29.56,South,175,15.0,20.0,84,0.00,,,0.00,Wunderground v.1.15,2013-11-16 13:13:00,
2013-11-16 07:19:00,58.0,53.2,29.55,South,188,16.0,22.0,84,0.00,,,0.00,Wunderground v.1.15,2013-11-16 13:19:00,
2013-11-16 07:25:00,58.1,53.6,29.55,South,180,16.0,24.0,85,0.00,,,0.00,Wunderground v.1.15,2013-11-16 13:25:00,
2013-11-16 07:31:00,57.9,53.4,29.55,South,182,16.0,19.0,85,0.00,,,0.00,Wunderground v.1.15,2013-11-16 13:31:00,
2013-11-16 07:37:00,58.1,53.3,29.55,South,178,16.0,25.0,84,0.00,,,0.00,Wunderground v.1.15,2013-11-16 13:37:00,
2013-11-16 07:43:00,58.2,53.4,29.55,South,181,15.0,19.0,84,0.00,,,0.00,Wunderground v.1.15,2013-11-16 13:43:00,
2013-11-16 07:48:00,58.4,53.3,29.56,South,169,15.0,22.0,83,0.00,,,0.00,Wunderground v.1.15,2013-11-16 13:48:00,
2013-11-16 07:53:00,58.6,53.5,29.55,South,186,17.0,25.0,83,0.00,,,0.00,Wunderground v.1.15,2013-11-16 13:53:00,
2013-11-16 07:58:00,58.6,53.5,29.55,South,175,17.0,25.0,83,0.00,,,0.00,Wunderground v.1.15,2013-11-16 13:58:00,
2013-11-16 08:04:00,58.7,53.2,29.55,South,178,17.0,23.0,82,0.00,,,0.00,Wunderground v.1.15,2013-11-16 14:04:00,
2013-11-16 08:10:00,58.8,53.3,29.55,SSW,202,18.0,18.0,82,0.00,,,0.00,Wunderground v.1.15,2013-11-16 14:10:00,
2013-11-16 08:16:00,58.8,53.3,29.55,South,183,17.0,24.0,82,0.00,,,0.00,Wunderground v.1.15,2013-11-16 14:16:00,
2013-11-16 08:21:00,58.9,53.4,29.55,South,169,16.0,23.0,82,0.00,,,0.00,Wunderground v.1.15,2013-11-16 14:21:00,
2013-11-16 08:26:00,58.9,53.4,29.54,South,178,17.0,23.0,82,0.00,,,0.00,Wunderground v.1.15,2013-11-16 14:26:00,
2013-11-16 08:32:00,59.1,53.3,29.55,South,178,17.0,22.0,81,0.00,,,0.00,Wunderground v.1.15,2013-11-16 14:32:00,
2013-11-16 08:38:00,59.3,53.5,29.54,South,170,17.0,23.0,81,0.00,,,0.00,Wunderground v.1.15,2013-11-16 14:38:00,
2013-11-16 08:44:00,59.4,53.6,29.54,South,173,17.0,23.0,81,0.00,,,0.00,Wunderground v.1.15,2013-11-16 14:44:00,
2013-11-16 08:50:00,59.7,53.5,29.55,South,180,17.0,21.0,80,0.00,,,0.00,Wunderground v.1.15,2013-11-16 14:50:00,
2013-11-16 08:55:00,60.0,53.5,29.55,South,180,17.0,26.0,79,0.00,,,0.00,Wunderground v.1.15,2013-11-16 14:55:00,
2013-11-16 09:00:00,60.6,53.7,29.54,South,185,18.0,22.0,78,0.00,,,0.00,Wunderground v.1.15,2013-11-16 15:00:00,
2013-11-16 09:05:00,60.9,53.6,29.55,South,183,18.0,28.0,77,0.00,,,0.00,Wunderground v.1.15,2013-11-16 15:05:00,
2013-11-16 09:11:00,61.1,53.5,29.55,South,187,19.0,26.0,76,0.00,,,0.00,Wunderground v.1.15,2013-11-16 15:11:00,
2013-11-16 09:16:00,61.2,53.6,29.55,SSW,197,19.0,29.0,76,0.00,,,0.00,Wunderground v.1.15,2013-11-16 15:16:00,
2013-11-16 09:22:00,61.3,53.7,29.55,South,184,20.0,24.0,76,0.00,,,0.00,Wunderground v.1.15,2013-11-16 15:22:00,
2013-11-16 09:27:00,61.3,54.0,29.55,SSW,192,19.0,29.0,77,0.00,,,0.00,Wunderground v.1.15,2013-11-16 15:27:00,
2013-11-16 09:32:00,62.2,54.2,29.55,South,188,20.0,32.0,75,0.00,,,0.00,Wunderground v.1.15,2013-11-16 15:32:00,
2013-11-16 09:37:00,62.3,54.3,29.55,South,178,20.0,32.0,75,0.00,,,0.00,Wunderground v.1.15,2013-11-16 15:37:00,
2013-11-16 09:43:00,62.2,53.8,29.55,SSE,168,20.0,30.0,74,0.00,,,0.00,Wunderground v.1.15,2013-11-16 15:43:00,
2013-11-16 09:48:00,62.4,54.0,29.55,South,190,19.0,30.0,74,0.00,,,0.00,Wunderground v.1.15,2013-11-16 15:48:00,
2013-11-16 09:53:00,62.7,54.7,29.55,South,184,19.0,25.0,75,0.00,,,0.00,Wunderground v.1.15,2013-11-16 15:53:00,
2013-11-16 09:59:00,63.0,54.6,29.55,SSW,196,20.0,29.0,74,0.00,,,0.00,Wunderground v.1.15,2013-11-16 15:59:00,
2013-11-16 10:05:00,62.9,54.5,29.55,South,174,20.0,31.0,74,0.00,,,0.00,Wunderground v.1.15,2013-11-16 16:05:00,
2013-11-16 10:11:00,62.9,54.5,29.55,SSW,193,19.0,21.0,74,0.00,,,0.00,Wunderground v.1.15,2013-11-16 16:11:00,
2013-11-16 10:17:00,63.2,54.4,29.55,SW,215,19.0,28.0,73,0.00,,,0.00,Wunderground v.1.15,2013-11-16 16:17:00,
2013-11-16 10:23:00,63.3,54.5,29.55,SSW,198,19.0,33.0,73,0.00,,,0.00,Wunderground v.1.15,2013-11-16 16:23:00,
2013-11-16 10:29:00,63.3,54.1,29.54,South,182,21.0,34.0,72,0.00,,,0.00,Wunderground v.1.15,2013-11-16 16:29:00,
2013-11-16 10:35:00,63.5,54.3,29.54,SSW,209,19.0,27.0,72,0.00,,,0.00,Wunderground v.1.15,2013-11-16 16:35:00,
2013-11-16 10:41:00,63.7,54.5,29.54,SSW,205,19.0,26.0,72,0.00,,,0.00,Wunderground v.1.15,2013-11-16 16:41:00,
2013-11-16 10:47:00,64.1,54.9,29.54,SSW,192,18.0,26.0,72,0.00,,,0.00,Wunderground v.1.15,2013-11-16 16:47:00,
2013-11-16 10:53:00,64.8,54.8,29.54,South,180,18.0,27.0,70,0.00,,,0.00,Wunderground v.1.15,2013-11-16 16:53:00,
2013-11-16 10:59:00,65.3,54.5,29.53,SSW,207,21.0,33.0,68,0.00,,,0.00,Wunderground v.1.15,2013-11-16 16:59:00,
2013-11-16 11:05:00,66.4,55.1,29.53,SSW,194,21.0,29.0,67,0.00,,,0.00,Wunderground v.1.15,2013-11-16 17:05:00,
2013-11-16 11:11:00,66.6,54.9,29.53,SSW,194,19.0,30.0,66,0.00,,,0.00,Wunderground v.1.15,2013-11-16 17:11:00,
2013-11-16 11:17:00,66.3,54.6,29.52,SSW,205,19.0,30.0,66,0.00,,,0.00,Wunderground v.1.15,2013-11-16 17:17:00,
2013-11-16 11:22:00,66.0,54.7,29.52,SSW,197,19.0,26.0,67,0.00,,,0.00,Wunderground v.1.15,2013-11-16 17:22:00,
2013-11-16 11:27:00,66.0,54.7,29.52,SSW,211,20.0,34.0,67,0.00,,,0.00,Wunderground v.1.15,2013-11-16 17:27:00,
2013-11-16 11:33:00,66.5,55.6,29.52,South,181,20.0,22.0,68,0.00,,,0.00,Wunderground v.1.15,2013-11-16 17:33:00,
2013-11-16 11:38:00,67.8,55.6,29.51,SSW,195,20.0,28.0,65,0.00,,,0.00,Wunderground v.1.15,2013-11-16 17:38:00,
2013-11-16 11:43:00,68.0,55.4,29.51,South,191,20.0,28.0,64,0.00,,,0.00,Wunderground v.1.15,2013-11-16 17:43:00,
2013-11-16 11:48:00,68.0,55.4,29.50,South,178,20.0,29.0,64,0.00,,,0.00,Wunderground v.1.15,2013-11-16 17:48:00,
2013-11-16 11:54:00,67.5,54.9,29.50,South,180,21.0,29.0,64,0.00,,,0.00,Wunderground v.1.15,2013-11-16 17:54:00,
2013-11-16 12:01:00,67.7,55.1,29.49,South,191,20.0,27.0,64,0.00,,,0.00,Wunderground v.1.15,2013-11-16 18:01:00,
2013-11-16 12:06:00,68.3,55.2,29.49,SSW,194,20.0,28.0,63,0.00,,,0.00,Wunderground v.1.15,2013-11-16 18:06:00,
2013-11-16 12:12:00,69.3,55.3,29.48,SW,228,20.0,28.0,61,0.00,,,0.00,Wunderground v.1.15,2013-11-16 18:12:00,
2013-11-16 12:18:00,70.1,54.6,29.48,South,188,22.0,33.0,58,0.00,,,0.00,Wunderground v.1.15,2013-11-16 18:18:00,
2013-11-16 12:24:00,69.9,54.9,29.48,South,190,22.0,28.0,59,0.00,,,0.00,Wunderground v.1.15,2013-11-16 18:24:00,
2013-11-16 12:30:00,70.0,55.0,29.47,South,190,21.0,27.0,59,0.00,,,0.00,Wunderground v.1.15,2013-11-16 18:30:00,
2013-11-16 12:35:00,70.8,55.3,29.47,SSW,198,21.0,28.0,58,0.00,,,0.00,Wunderground v.1.15,2013-11-16 18:35:00,
2013-11-16 12:40:00,71.2,54.7,29.47,SW,221,21.0,21.0,56,0.00,,,0.00,Wunderground v.1.15,2013-11-16 18:40:00,
2013-11-16 12:46:00,72.1,54.5,29.46,SW,215,20.0,34.0,54,0.00,,,0.00,Wunderground v.1.15,2013-11-16 18:46:00,
2013-11-16 12:52:00,71.2,53.7,29.46,SSW,211,20.0,28.0,54,0.00,,,0.00,Wunderground v.1.15,2013-11-16 18:52:00,
2013-11-16 12:58:00,72.7,53.5,29.45,SSW,202,19.0,30.0,51,0.00,,,0.00,Wunderground v.1.15,2013-11-16 18:58:00,
2013-11-16 13:03:00,73.2,54.0,29.45,SSW,194,19.0,27.0,51,0.00,,,0.00,Wunderground v.1.15,2013-11-16 19:03:00,
2013-11-16 13:08:00,73.2,52.9,29.45,SSW,207,19.0,31.0,49,0.00,,,0.00,Wunderground v.1.15,2013-11-16 19:08:00,
2013-11-16 13:13:00,73.5,52.6,29.45,SSW,207,21.0,33.0,48,0.00,,,0.00,Wunderground v.1.15,2013-11-16 19:13:00,
2013-11-16 13:19:00,73.8,52.9,29.45,SSW,209,20.0,33.0,48,0.00,,,0.00,Wunderground v.1.15,2013-11-16 19:19:00,
2013-11-16 13:24:00,74.4,52.9,29.45,SSW,201,18.0,27.0,47,0.00,,,0.00,Wunderground v.1.15,2013-11-16 19:24:00,
2013-11-16 13:29:00,74.8,52.6,29.44,SW,217,17.0,31.0,46,0.00,,,0.00,Wunderground v.1.15,2013-11-16 19:29:00,
2013-11-16 13:35:00,75.0,52.2,29.44,SSW,201,16.0,26.0,45,0.00,,,0.00,Wunderground v.1.15,2013-11-16 19:35:00,
2013-11-16 13:41:00,74.6,53.6,29.43,SSW,211,18.0,26.0,48,0.00,,,0.00,Wunderground v.1.15,2013-11-16 19:41:00,
2013-11-16 13:47:00,74.5,53.5,29.43,South,186,19.0,27.0,48,0.00,,,0.00,Wunderground v.1.15,2013-11-16 19:47:00,
2013-11-16 13:52:00,74.4,53.4,29.43,SSW,206,20.0,30.0,48,0.00,,,0.00,Wunderground v.1.15,2013-11-16 19:52:00,
2013-11-16 13:58:00,74.5,53.5,29.42,South,188,20.0,30.0,48,0.00,,,0.00,Wunderground v.1.15,2013-11-16 19:58:00,
2013-11-16 14:04:00,74.7,52.5,29.42,SSW,210,21.0,33.0,46,0.00,,,0.00,Wunderground v.1.15,2013-11-16 20:04:00,
2013-11-16 14:09:00,74.8,52.0,29.42,SSW,208,23.0,35.0,45,0.00,,,0.00,Wunderground v.1.15,2013-11-16 20:09:00,
2013-11-16 14:14:00,75.1,52.9,29.42,South,179,22.0,29.0,46,0.00,,,0.00,Wunderground v.1.15,2013-11-16 20:14:00,
2013-11-16 14:20:00,75.1,52.3,29.42,SSW,212,21.0,29.0,45,0.00,,,0.00,Wunderground v.1.15,2013-11-16 20:20:00,
2013-11-16 14:26:00,75.2,52.4,29.41,SSW,208,22.0,33.0,45,0.00,,,0.00,Wunderground v.1.15,2013-11-16 20:26:00,
2013-11-16 14:32:00,75.6,52.1,29.41,SSW,205,23.0,27.0,44,0.00,,,0.00,Wunderground v.1.15,2013-11-16 20:32:00,
2013-11-16 14:38:00,75.8,51.7,29.40,SSW,198,22.0,31.0,43,0.00,,,0.00,Wunderground v.1.15,2013-11-16 20:38:00,
2013-11-16 14:43:00,76.3,50.9,29.40,South,182,21.0,31.0,41,0.00,,,0.00,Wunderground v.1.15,2013-11-16 20:43:00,
2013-11-16 14:49:00,76.2,52.7,29.40,SSW,203,18.0,31.0,44,0.00,,,0.00,Wunderground v.1.15,2013-11-16 20:49:00,
2013-11-16 14:54:00,76.1,53.2,29.40,South,171,18.0,28.0,45,0.00,,,0.00,Wunderground v.1.15,2013-11-16 20:54:00,
2013-11-16 15:00:00,76.0,53.7,29.40,SSW,192,19.0,19.0,46,0.00,,,0.00,Wunderground v.1.15,2013-11-16 21:00:00,
2013-11-16 15:06:00,75.8,53.5,29.40,South,175,19.0,30.0,46,0.00,,,0.00,Wunderground v.1.15,2013-11-16 21:06:00,
2013-11-16 15:12:00,75.7,53.4,29.40,SSW,202,19.0,28.0,46,0.00,,,0.00,Wunderground v.1.15,2013-11-16 21:12:00,
2013-11-16 15:17:00,74.7,54.8,29.39,South,178,22.0,39.0,50,0.00,,,0.00,Wunderground v.1.15,2013-11-16 21:17:00,
2013-11-16 15:23:00,74.5,54.6,29.40,SSW,201,24.0,32.0,50,0.00,,,0.00,Wunderground v.1.15,2013-11-16 21:23:00,
2013-11-16 15:29:00,74.5,54.6,29.39,South,182,21.0,32.0,50,0.00,,,0.00,Wunderground v.1.15,2013-11-16 21:29:00,
2013-11-16 15:35:00,74.4,54.5,29.40,South,180,20.0,30.0,50,0.00,,,0.00,Wunderground v.1.15,2013-11-16 21:35:00,
2013-11-16 15:40:00,74.3,54.5,29.39,South,180,22.0,30.0,50,0.00,,,0.00,Wunderground v.1.15,2013-11-16 21:40:00,
2013-11-16 15:45:00,74.1,54.3,29.39,South,187,23.0,35.0,50,0.00,,,0.00,Wunderground v.1.15,2013-11-16 21:45:00,
2013-11-16 15:51:00,74.1,54.3,29.39,South,184,22.0,30.0,50,0.00,,,0.00,Wunderground v.1.15,2013-11-16 21:51:00,
2013-11-16 15:56:00,74.1,54.3,29.40,SSW,204,20.0,30.0,50,0.00,,,0.00,Wunderground v.1.15,2013-11-16 21:56:00,
2013-11-16 16:01:00,74.2,53.8,29.40,SSW,202,20.0,33.0,49,0.00,,,0.00,Wunderground v.1.15,2013-11-16 22:01:00,
2013-11-16 16:07:00,74.0,53.6,29.40,South,172,20.0,35.0,49,0.00,,,0.00,Wunderground v.1.15,2013-11-16 22:07:00,
2013-11-16 16:12:00,73.9,53.5,29.40,SSW,205,19.0,25.0,49,0.00,,,0.00,Wunderground v.1.15,2013-11-16 22:12:00,
2013-11-16 16:18:00,73.9,54.1,29.40,South,178,17.0,25.0,50,0.00,,,0.00,Wunderground v.1.15,2013-11-16 22:18:00,
2013-11-16 16:24:00,74.2,53.8,29.39,South,184,16.0,27.0,49,0.00,,,0.00,Wunderground v.1.15,2013-11-16 22:24:00,
2013-11-16 16:29:00,74.1,53.2,29.39,South,173,17.0,27.0,48,0.00,,,0.00,Wunderground v.1.15,2013-11-16 22:29:00,
2013-11-16 16:35:00,74.0,53.1,29.40,South,170,17.0,24.0,48,0.00,,,0.00,Wunderground v.1.15,2013-11-16 22:35:00,
2013-11-16 16:41:00,73.7,52.8,29.39,SSW,196,16.0,21.0,48,0.00,,,0.00,Wunderground v.1.15,2013-11-16 22:41:00,
2013-11-16 16:46:00,73.8,52.3,29.40,SSW,194,16.0,25.0,47,0.00,,,0.00,Wunderground v.1.15,2013-11-16 22:46:00,
2013-11-16 16:51:00,73.6,52.1,29.40,SSW,199,16.0,20.0,47,0.00,,,0.00,Wunderground v.1.15,2013-11-16 22:51:00,
2013-11-16 16:57:00,73.1,53.4,29.40,SSW,211,12.0,20.0,50,0.00,,,0.00,Wunderground v.1.15,2013-11-16 22:57:00,
2013-11-16 17:03:00,72.5,53.9,29.40,SSW,199,13.0,17.0,52,0.00,,,0.00,Wunderground v.1.15,2013-11-16 23:03:00,
2013-11-16 17:09:00,72.1,54.0,29.40,South,191,13.0,23.0,53,0.00,,,0.00,Wunderground v.1.15,2013-11-16 23:09:00,
2013-11-16 17:14:00,71.8,54.3,29.40,South,178,14.0,19.0,54,0.00,,,0.00,Wunderground v.1.15,2013-11-16 23:14:00,
2013-11-16 17:20:00,71.5,54.0,29.40,South,190,13.0,17.0,54,0.00,,,0.00,Wunderground v.1.15,2013-11-16 23:20:00,
2013-11-16 17:25:00,71.2,54.7,29.40,South,186,14.0,18.0,56,0.00,,,0.00,Wunderground v.1.15,2013-11-16 23:25:00,
2013-11-16 17:30:00,70.8,54.3,29.40,South,189,14.0,17.0,56,0.00,,,0.00,Wunderground v.1.15,2013-11-16 23:30:00,
2013-11-16 17:36:00,70.4,54.4,29.40,South,187,13.0,19.0,57,0.00,,,0.00,Wunderground v.1.15,2013-11-16 23:36:00,
2013-11-16 17:41:00,70.2,54.2,29.40,SSW,195,12.0,13.0,57,0.00,,,0.00,Wunderground v.1.15,2013-11-16 23:41:00,
2013-11-16 17:46:00,69.9,54.4,29.41,South,188,12.0,19.0,58,0.00,,,0.00,Wunderground v.1.15,2013-11-16 23:46:00,
2013-11-16 17:51:00,69.5,54.5,29.41,SSW,193,12.0,17.0,59,0.00,,,0.00,Wunderground v.1.15,2013-11-16 23:51:00,
2013-11-16 17:57:00,69.5,54.5,29.41,South,172,13.0,19.0,59,0.00,,,0.00,Wunderground v.1.15,2013-11-16 23:57:00,
2013-11-16 18:03:00,69.4,54.4,29.41,SSW,203,14.0,18.0,59,0.00,,,0.00,Wunderground v.1.15,2013-11-17 00:03:00,
2013-11-16 18:08:00,69.5,54.5,29.41,South,175,14.0,21.0,59,0.00,,,0.00,Wunderground v.1.15,2013-11-17 00:08:00,
2013-11-16 18:14:00,69.9,54.4,29.41,South,174,15.0,23.0,58,0.00,,,0.00,Wunderground v.1.15,2013-11-17 00:14:00,
2013-11-16 18:20:00,70.1,54.2,29.42,South,188,16.0,16.0,57,0.00,,,0.00,Wunderground v.1.15,2013-11-17 00:20:00,
2013-11-16 18:26:00,70.2,54.2,29.42,South,185,16.0,23.0,57,0.00,,,0.00,Wunderground v.1.15,2013-11-17 00:26:00,
2013-11-16 18:32:00,70.1,53.7,29.42,South,183,18.0,24.0,56,0.00,,,0.00,Wunderground v.1.15,2013-11-17 00:32:00,
2013-11-16 18:37:00,69.8,53.4,29.42,South,174,17.0,24.0,56,0.00,,,0.00,Wunderground v.1.15,2013-11-17 00:37:00,
2013-11-16 18:43:00,69.8,53.9,29.42,SSW,194,16.0,27.0,57,0.00,,,0.00,Wunderground v.1.15,2013-11-17 00:43:00,
2013-11-16 18:49:00,69.9,54.0,29.42,South,184,18.0,30.0,57,0.00,,,0.00,Wunderground v.1.15,2013-11-17 00:49:00,
2013-11-16 18:55:00,69.4,54.0,29.42,South,180,18.0,23.0,58,0.00,,,0.00,Wunderground v.1.15,2013-11-17 00:55:00,
2013-11-16 19:01:00,69.0,54.5,29.42,South,187,17.0,20.0,60,0.00,,,0.00,Wunderground v.1.15,2013-11-17 01:01:00,
2013-11-16 19:06:00,68.7,54.7,29.42,SSW,201,16.0,22.0,61,0.00,,,0.00,Wunderground v.1.15,2013-11-17 01:06:00,
2013-11-16 19:12:00,68.2,55.1,29.43,SSW,198,16.0,22.0,63,0.00,,,0.00,Wunderground v.1.15,2013-11-17 01:12:00,
2013-11-16 19:17:00,67.8,55.2,29.43,South,173,16.0,22.0,64,0.00,,,0.00,Wunderground v.1.15,2013-11-17 01:17:00,
2013-11-16 19:22:00,67.6,55.4,29.43,South,188,16.0,21.0,65,0.00,,,0.00,Wunderground v.1.15,2013-11-17 01:22:00,
2013-11-16 19:28:00,67.6,55.4,29.43,South,176,16.0,21.0,65,0.00,,,0.00,Wunderground v.1.15,2013-11-17 01:28:00,
2013-11-16 19:33:00,67.6,55.4,29.43,South,190,16.0,20.0,65,0.00,,,0.00,Wunderground v.1.15,2013-11-17 01:33:00,
2013-11-16 19:39:00,67.7,55.5,29.43,South,182,16.0,23.0,65,0.00,,,0.00,Wunderground v.1.15,2013-11-17 01:39:00,
2013-11-16 19:45:00,67.8,55.6,29.43,South,175,17.0,26.0,65,0.00,,,0.00,Wunderground v.1.15,2013-11-17 01:45:00,
2013-11-16 19:51:00,67.5,55.3,29.42,South,182,18.0,23.0,65,0.00,,,0.00,Wunderground v.1.15,2013-11-17 01:51:00,
2013-11-16 19:56:00,67.2,55.5,29.42,South,188,18.0,24.0,66,0.00,,,0.00,Wunderground v.1.15,2013-11-17 01:56:00,
2013-11-16 20:01:00,67.1,55.4,29.42,South,182,18.0,22.0,66,0.00,,,0.00,Wunderground v.1.15,2013-11-17 02:01:00,
2013-11-16 20:07:00,66.8,55.5,29.42,SSW,192,17.0,24.0,67,0.00,,,0.00,Wunderground v.1.15,2013-11-17 02:07:00,
2013-11-16 20:12:00,66.6,55.3,29.42,SSW,194,16.0,22.0,67,0.00,,,0.00,Wunderground v.1.15,2013-11-17 02:12:00,
2013-11-16 20:17:00,66.2,55.3,29.42,South,171,16.0,22.0,68,0.00,,,0.00,Wunderground v.1.15,2013-11-17 02:17:00,
2013-11-16 20:24:00,65.4,55.4,29.42,SSE,166,14.0,20.0,70,0.00,,,0.00,Wunderground v.1.15,2013-11-17 02:24:00,
2013-11-16 20:29:00,65.4,55.4,29.42,SSE,160,14.0,21.0,70,0.00,,,0.00,Wunderground v.1.15,2013-11-17 02:29:00,
2013-11-16 20:35:00,65.6,55.5,29.42,South,178,15.0,23.0,70,0.00,,,0.00,Wunderground v.1.15,2013-11-17 02:35:00,
2013-11-16 20:40:00,65.6,55.5,29.42,South,188,16.0,16.0,70,0.00,,,0.00,Wunderground v.1.15,2013-11-17 02:40:00,
2013-11-16 20:45:00,65.5,55.8,29.42,South,180,15.0,21.0,71,0.00,,,0.00,Wunderground v.1.15,2013-11-17 02:45:00,
2013-11-16 20:51:00,65.4,55.7,29.42,South,173,15.0,17.0,71,0.00,,,0.00,Wunderground v.1.15,2013-11-17 02:51:00,
2013-11-16 20:57:00,65.4,55.7,29.42,South,182,14.0,21.0,71,0.00,,,0.00,Wunderground v.1.15,2013-11-17 02:57:00,
2013-11-16 21:03:00,65.3,56.0,29.42,South,184,15.0,21.0,72,0.00,,,0.00,Wunderground v.1.15,2013-11-17 03:03:00,
2013-11-16 21:08:00,65.2,55.9,29.41,South,178,16.0,25.0,72,0.00,,,0.00,Wunderground v.1.15,2013-11-17 03:08:00,
2013-11-16 21:13:00,65.3,56.0,29.41,South,184,17.0,25.0,72,0.00,,,0.00,Wunderground v.1.15,2013-11-17 03:13:00,
2013-11-16 21:19:00,65.0,56.1,29.41,South,188,16.0,25.0,73,0.00,,,0.00,Wunderground v.1.15,2013-11-17 03:19:00,
2013-11-16 21:24:00,65.0,56.1,29.41,South,187,15.0,24.0,73,0.00,,,0.00,Wunderground v.1.15,2013-11-17 03:24:00,
2013-11-16 21:29:00,65.1,56.2,29.41,SSW,196,15.0,24.0,73,0.00,,,0.00,Wunderground v.1.15,2013-11-17 03:29:00,
2013-11-16 21:35:00,65.2,56.3,29.41,South,174,16.0,25.0,73,0.00,,,0.00,Wunderground v.1.15,2013-11-17 03:35:00,
2013-11-16 21:41:00,65.1,56.2,29.41,South,188,16.0,22.0,73,0.00,,,0.00,Wunderground v.1.15,2013-11-17 03:41:00,
2013-11-16 21:47:00,65.0,56.1,29.41,South,184,16.0,27.0,73,0.00,,,0.00,Wunderground v.1.15,2013-11-17 03:47:00,
2013-11-16 21:52:00,64.7,55.8,29.41,South,185,16.0,20.0,73,0.00,,,0.00,Wunderground v.1.15,2013-11-17 03:52:00,
2013-11-16 21:57:00,64.4,55.9,29.41,South,177,15.0,21.0,74,0.00,,,0.00,Wunderground v.1.15,2013-11-17 03:57:00,
2013-11-16 22:02:00,64.1,56.0,29.41,South,179,15.0,17.0,75,0.00,,,0.00,Wunderground v.1.15,2013-11-17 04:02:00,
2013-11-16 22:08:00,64.1,56.0,29.41,South,188,13.0,19.0,75,0.00,,,0.00,Wunderground v.1.15,2013-11-17 04:08:00,
2013-11-16 22:13:00,64.1,55.6,29.41,SSW,204,13.0,19.0,74,0.00,,,0.00,Wunderground v.1.15,2013-11-17 04:13:00,
2013-11-16 22:19:00,64.1,55.6,29.41,South,183,13.0,20.0,74,0.00,,,0.00,Wunderground v.1.15,2013-11-17 04:19:00,
2013-11-16 22:25:00,64.2,55.7,29.41,South,190,14.0,20.0,74,0.00,,,0.00,Wunderground v.1.15,2013-11-17 04:25:00,
2013-11-16 22:31:00,64.3,55.5,29.40,SSW,202,15.0,22.0,73,0.00,,,0.00,Wunderground v.1.15,2013-11-17 04:31:00,
2013-11-16 22:36:00,64.4,55.2,29.40,SSW,199,16.0,24.0,72,0.00,,,0.00,Wunderground v.1.15,2013-11-17 04:36:00,
2013-11-16 22:42:00,64.4,55.2,29.40,SSW,205,16.0,22.0,72,0.00,,,0.00,Wunderground v.1.15,2013-11-17 04:42:00,
2013-11-16 22:48:00,64.3,54.7,29.40,SSW,199,16.0,24.0,71,0.00,,,0.00,Wunderground v.1.15,2013-11-17 04:48:00,
2013-11-16 22:54:00,64.2,54.2,29.40,SSW,207,16.0,23.0,70,0.00,,,0.00,Wunderground v.1.15,2013-11-17 04:54:00,
2013-11-16 23:00:00,64.4,53.6,29.40,SW,217,16.0,19.0,68,0.00,,,0.00,Wunderground v.1.15,2013-11-17 05:00:00,
2013-11-16 23:01:00,64.5,53.7,29.40,South,180,16.0,19.0,68,0.00,,,0.00,Wunderground v.1.15,2013-11-17 05:01:00,
2013-11-16 23:02:00,64.5,53.7,29.40,South,183,16.0,20.0,68,0.00,,,0.00,Wunderground v.1.15,2013-11-17 05:02:00,
2013-11-16 23:03:00,64.5,53.3,29.40,SSW,192,16.0,25.0,67,0.00,,,0.00,Wunderground v.1.15,2013-11-17 05:03:00,
2013-11-16 23:05:00,64.5,53.3,29.40,SSW,211,16.0,25.0,67,0.00,,,0.00,Wunderground v.1.15,2013-11-17 05:05:00,
2013-11-16 23:06:00,64.5,53.3,29.40,SSW,209,16.0,25.0,67,0.00,,,0.00,Wunderground v.1.15,2013-11-17 05:06:00,
2013-11-16 23:09:00,64.5,52.9,29.40,SSW,195,16.0,25.0,66,0.00,,,0.00,Wunderground v.1.15,2013-11-17 05:09:00,
2013-11-16 23:14:00,64.4,52.4,29.40,SSW,207,15.0,25.0,65,0.00,,,0.00,Wunderground v.1.15,2013-11-17 05:14:00,
2013-11-16 23:19:00,64.4,52.0,29.40,SSW,209,16.0,25.0,64,0.00,,,0.00,Wunderground v.1.15,2013-11-17 05:19:00,
2013-11-16 23:25:00,64.5,50.7,29.40,SSW,194,16.0,21.0,61,0.00,,,0.00,Wunderground v.1.15,2013-11-17 05:25:00,
2013-11-16 23:30:00,64.6,49.9,29.40,SW,221,16.0,20.0,59,0.00,,,0.00,Wunderground v.1.15,2013-11-17 05:30:00,
2013-11-16 23:35:00,64.6,49.5,29.40,SSW,200,16.0,23.0,58,0.00,,,0.00,Wunderground v.1.15,2013-11-17 05:35:00,
2013-11-16 23:41:00,64.8,48.7,29.40,SSW,200,15.0,23.0,56,0.00,,,0.00,Wunderground v.1.15,2013-11-17 05:41:00,
2013-11-16 23:47:00,65.0,47.4,29.40,SW,221,15.0,23.0,53,0.00,,,0.00,Wunderground v.1.15,2013-11-17 05:47:00,
2013-11-16 23:52:00,65.0,46.9,29.40,SSW,200,15.0,21.0,52,0.00,,,0.00,Wunderground v.1.15,2013-11-17 05:52:00,
2013-11-16 23:57:00,65.1,47.0,29.40,SSW,202,14.0,21.0,52,0.00,,,0.00,Wunderground v.1.15,2013-11-17 05:57:00,